Regional Weather Roundup
Issued by NWS

Home | Current Version | Previous Version | Graphics & Text | Print | Product List | Glossary Off
Versions: 1 2 3 4 5 6 7 8 9 10 11 12 13 14 15 16 17 18 19 20 21 22 23 24 25 26 27 28 29 30 31 32 33 34 35 36 37 38 39 40 41 42 43 44 45 46 47 48 49 50

326
ASUS43 KMPX 202210
RWRMN
WEATHER ROUNDUP FOR MINNESOTA
NATIONAL WEATHER SERVICE TWIN CITIES/CHANHASSEN MN
500 PM CDT WED SEP 20 2017


NOTE: "FAIR" INDICATES FEW OR NO CLOUDS BELOW 12,000 FEET WITH NO
SIGNIFICANT WEATHER AND/OR OBSTRUCTIONS TO VISIBILITY. N/A MEANS
CURRENT SKY AND/OR WEATHER CONDITIONS ARE NOT AVAILABLE.

MNZ060>063-068>070-202300-
   Twin Cities Metro

CITY           SKY/WX    TMP DP  RH WIND       PRES   REMARKS
TWIN CITIES    SUNNY     74  52  46 W8        29.85R
ST PAUL        SUNNY     74  51  44 W8        29.84R
CRYSTAL        SUNNY     73  45  36 NW8       29.84R
BLAINE         SUNNY     75  48  38 W6        29.85R
LAKEVILLE      SUNNY     72  52  49 W7        29.85R
EDEN PRAIRIE   SUNNY     74  51  44 W7        29.84R
SOUTH ST PAUL  SUNNY     74  48  39 W8        29.84R
LAKE ELMO      FAIR      72  52  49 W7        29.85R
$$
MNZ001>005-007-008-013>017-022>024-027-028-202300-
   Northwest Minnesota

CITY           SKY/WX    TMP DP  RH WIND       PRES   REMARKS
BEMIDJI        SUNNY     66  40  38 SW8       29.79F
HALLOCK        CLOUDY    72  36  26 SW15      29.67S
ROSEAU         SUNNY     70  37  30 SW13      29.72S
WARROAD        SUNNY     68  43  40 SW9       29.72F
THIEF RVR FALL MOSUNNY   69  39  33 SW12G20   29.75S
CROOKSTON      SUNNY     70  41  35 SW17      29.74R
FOSSTON        SUNNY     70  43  37 SW12G23   29.78R
DETROIT LAKES  SUNNY     68  37  32 SW8       29.82R
MOORHEAD       SUNNY     72  37  28 SW10G18   29.78S
PARK RAPIDS    SUNNY     68  42  38 W7        29.82S
MAHNOMEN       FAIR      68  40  35 SW10G17   29.79R
$$
MNZ006-009>011-018-025>026-202300-
   North Central Minnesota

CITY           SKY/WX    TMP DP  RH WIND       PRES   REMARKS
BAUDETTE       SUNNY     67  40  37 SW12G20   29.75R
FLAG ISLAND    MOSUNNY   66  36  32 W8G16     29.70S
INTL FALLS     SUNNY     66  41  40 W12G18    29.78R
WASKISH        SUNNY     66  46  48 SW10      29.79S
BIG FORK       SUNNY     66  45  45 SW9       29.82R
LONGVILLE      SUNNY     66  45  45 SW6       29.83S
GRAND RAPIDS   SUNNY     66  44  45 VRB5      29.85R
CRANE LAKE     SUNNY     64  45  48 W7        29.80R
ORR            SUNNY     64  39  39 W7G17     29.79R
COOK           MOSUNNY   64  48  55 SW8       29.82R
WALKER         FAIR      66  41  40 W7        29.81S
$$
MNZ012-019>021-037-202300-
   Northeast Minnesota

CITY           SKY/WX    TMP DP  RH WIND       PRES   REMARKS
DULUTH         MOSUNNY   69  49  48 W15       29.81R
ELY            MOSUNNY   64  48  55 W13       29.80R
HIBBING        SUNNY     65  45  48 W8        29.83R
EVELETH        SUNNY     66  32  28 W10       29.83R
DULUTH HARBOR  SUNNY     73  55  53 W13       29.80R
SILVER BAY     MOSUNNY   73  55  53 W5        29.77R
GRAND MARAIS     N/A     65  61  87 CALM      29.75R
$$
MNZ029>031-032-039>041-046>048-054>057-064-202300-
   West Central Minnesota

CITY           SKY/WX    TMP DP  RH WIND       PRES   REMARKS
FERGUS FALLS   SUNNY     70  41  35 SW8       29.81R
WHEATON        SUNNY     72  34  25 S3        29.82F
MORRIS         SUNNY     72  39  30 SW5       29.83S
ALEXANDRIA     SUNNY     69  39  33 W6        29.86R
ELBOW LAKE     FAIR      68  41  37 SW7       29.84R
WADENA         SUNNY     66  41  39 SW7       29.83R
GLENWOOD       SUNNY     70  41  35 W6        29.86R
APPLETON       SUNNY     72  36  26 S5        29.83S
BENSON         SUNNY     72  37  28 NW5       29.86R
ORTONVILLE     SUNNY     72  39  30 N6        29.83S
MADISON        SUNNY     73  37  27 SW3       29.84S
WILLMAR        FAIR      70  46  43 S3        29.87R
$$
MNZ033>034-036-042>043-049>051-058-059-202300-
   Central Minnesota

CITY           SKY/WX    TMP DP  RH WIND       PRES   REMARKS
ST CLOUD       SUNNY     70  48  45 W12       29.85R
SAUK CENTRE    FAIR      68  43  41 S5        29.85S
PAYNESVILLE    SUNNY     69  46  43 S3        29.86S
AITKIN         SUNNY     68  46  45 W3        29.83S
PINE RIVER     SUNNY     64  43  45 SW6       29.86S
BRAINERD       SUNNY     68  43  40 W8        29.83S
LONG PRAIRIE   FAIR      68  43  40 SW3       29.85S
LITTLE FALLS   SUNNY     68  30  24 SW6       29.85S
LITCHFIELD     SUNNY     70  48  46 W3        29.86S
BUFFALO        SUNNY     71  45  39 W6        29.86S
MAPLE LAKE     SUNNY     71  50  47 NW7       29.86S
HUTCHINSON     SUNNY     71  48  43 W3        29.87S
$$
MNZ037-044-045-052-053-202300-
   East Central Minnesota

CITY           SKY/WX    TMP DP  RH WIND       PRES   REMARKS
PRINCETON      SUNNY     73  48  40 W5        29.85R
MORA           SUNNY     68  48  49 W7        29.86R
RUSH CITY      SUNNY     71  49  44 SW8       29.85R
MOOSE LAKE     SUNNY     70  46  43 W9G17     29.82R
HINCKLEY       FAIR      70  52  52 NW6       29.84R
CLOQUET        SUNNY     70  45  40 W9G16     29.82R
MCGREGOR       SUNNY     68  46  45 W6        29.85R
$$
MNZ071>073-080-081-089-090-097-098-202300-
   Southwest Minnesota

CITY           SKY/WX    TMP DP  RH WIND       PRES   REMARKS
MONTEVIDEO     SUNNY     77  46  33 CALM      29.85R
GRANITE FALLS  SUNNY     73  46  39 W3        29.86S
CANBY          SUNNY     72  41  32 CALM      29.85S
MARSHALL       SUNNY     72  42  34 CALM      29.85F
REDWOOD FALLS  SUNNY     72  45  37 VRB3      29.85S
OLIVIA         SUNNY     70  46  43 W5        29.86S
PIPESTONE      SUNNY     70  45  40 CALM      29.86S
WINDOM         SUNNY     73  43  33 CALM      29.87S
WORTHINGTON    SUNNY     72  41  32 CALM      29.88S
JACKSON        SUNNY     72  45  37 CALM      29.88S
TRACY          SUNNY     72  46  40 CALM      29.86F
SLAYTON        SUNNY     72  39  30 W3        29.88S
$$
MNZ065>067-074>077-082>085-091>093-202300-
   South Central Minnesota

CITY           SKY/WX    TMP DP  RH WIND       PRES   REMARKS
MANKATO        SUNNY     72  49  44 NW6       29.87R
NEW ULM        SUNNY     72  45  37 CALM      29.86S
ST JAMES       SUNNY     73  45  35 NW5       29.88S
FAIRMONT       SUNNY     74  48  39 NW7       29.87
GLENCOE        SUNNY     73  52  48 NW3       29.85S
FARIBAULT      SUNNY     73  52  46 W6        29.86S
OWATONNA       SUNNY     73  54  49 W7        29.86S
WASECA         SUNNY     72  52  49 NW5       29.88R
ALBERT LEA     SUNNY     79  54  41 W6        29.86R
$$
MNZ078>079-086>088-094>096-202300-
   Southeast Minnesota

CITY           SKY/WX    TMP DP  RH WIND       PRES   REMARKS
ROCHESTER      MOSUNNY   75  58  55 NW12      29.85S
RED WING       SUNNY     77  46  33 NW8       29.82R
STANTON        SUNNY     74  53  47 W7        29.83S
DODGE CENTER   SUNNY     73  52  46 W8        29.86R
WINONA         MOSUNNY   77  61  57 N13       29.82R
AUSTIN         SUNNY     73  55  53 NW12      29.85S
PRESTON        SUNNY     73  60  63 NW12      29.85R
$$
ABBREVIATIONS USED IN REMARKS
   TC - TEMPERATURES IN CELSIUS
  WCI - WIND CHILL INDEX
   HX - HEAT INDEX
  VSB - VISIBILITY
$$




USA.gov is the U.S. government's official web portal to all federal, state and local government web resources and services.